Location: Rochester
(43.1547°N, 77.6158°W)
Time: 13:05:34
(UTC-04:00)

Tiangong 2 - Visible Passes

Search period start: 24 June 2018 00:00
Search period end: 04 July 2018 00:00
Orbit: 385 x 396 km, 42.8° (Epoch: 24 June)

Date Brightness Start Highest point End Pass type
(mag) Time Alt. Az. Time Alt. Az. Time Alt. Az.
25 Jun 3.7 04:53:36 10° SSE 04:54:38 11° SE 04:55:41 10° SE visible
27 Jun 3.0 04:33:54 11° SSW 04:36:11 20° SSE 04:38:35 10° ESE visible
28 Jun 3.5 03:38:53 12° SE 03:38:53 12° SE 03:40:16 10° ESE visible
29 Jun 2.1 04:16:08 19° SSW 04:17:48 32° SSE 04:20:43 10° E visible
30 Jun 2.9 03:21:02 20° SE 03:21:02 20° SE 03:22:56 10° E visible
30 Jun 1.2 04:53:49 10° WSW 04:57:00 67° SSE 05:00:11 10° E visible
01 Jul 1.4 03:58:15 29° SW 03:59:31 49° SSE 04:02:38 10° E visible
02 Jul 2.6 03:03:09 26° ESE 03:03:09 26° ESE 03:05:02 10° E visible
02 Jul 1.0 04:35:36 10° W 04:38:48 82° S 04:42:01 10° E visible
03 Jul 1.0 03:40:23 41° WSW 03:41:18 70° S 03:44:30 10° E visible
